Location: *
(49.4547°N, 7.9131°E)
Time: 17:34:33
(UTC+00:00)

Cosmos 1544 Rocket - Pass Details

Date: 22 September 2019
Orbit: 604 x 632 km, 82.5° (Epoch: 15 October)

Event Time Altitude Azimuth Distance (km) Brightness Sun altitude
Rises 19:41:57 0° 200° (SSW) 2,913 6.9 -21.9°
Reaches altitude 10° 19:44:13 10° 204° (SSW) 2,010 6.1 -22.2°
Maximum altitude 19:48:36 56° 283° (WNW) 757 4.2 -22.8°
Drops below altitude 10° 19:53:00 10° 2° (N) 2,019 6.5 -23.4°
Sets 19:55:17 0° 7° (N) 2,928 7.3 -23.7°
